sat.trackr.live / text

‹ back to catalog

STARLINK-37023

NORAD 68076 · 2026-042H

PAYLOAD ACTIVE UNKNOWN

§ Identity

Operator
Country
US
Launch date
2026-03-04
Launch site
AFETR
Launch vehicle
Mass (kg)
RCS (m²)

Purposes: comms

External: N2YO · Heavens-Above · Gunter

§ Orbital elements

Epoch: 2026-09-19T19:36:21.280608Z

Period
93.85 min
Inclination
53.1586°
Eccentricity
0.0001015
Mean motion
15.34415285 rev/d
Perigee alt
462.0 km
Apogee alt
463.4 km
Semi-major
6,840.8 km
B*
3.9547e-4
RAAN
353.0040°
Arg perigee
49.3484°
Mean anomaly
310.7607°
Rev number
3,208

§ Raw data

STARLINK-370231 68076U 26042H   26262.81691297  .00013015  00000+0  39547-3 0  99922 68076  53.1586 353.0040 0001015  49.3484 310.7607 15.34415285 32086

JSON: /api/v1/satellites/68076 · /tle

For live sub-satellite position, see the globe view (requires WebGL).

§ Visibility from observer

Set your observer location to see the next 7 days of passes ≥ 10°. The values pass through the URL so the page stays shareable.

No JS? Fill the form by hand. The geolocation button needs JavaScript.